• In Hungary
  • List of Countries
  • For 7 days
  • Water Temperature
  • Satellite Maps
  • Weather Map
  • News
  • Weather Widgets
  • user-avatar
    Login

    Hourly Weather Kombissiri

    Today, 20 October, Saturday

    Time Temperature Precipitation Wind Pressure Humidity
    00:00 +32°C° 0 mm 2 mps 731 mmHg 43%
    01:00 +31°C° 0 mm 1 mps 731 mmHg 44%
    02:00 +31°C° 0 mm 1 mps 730 mmHg 45%
    03:00 +30°C° 0 mm 1 mps 730 mmHg 46%
    04:00 +30°C° 0 mm 1 mps 730 mmHg 47%
    05:00 +29°C° 0 mm 1 mps 731 mmHg 48%
    06:00 +29°C° 0 mm 2 mps 731 mmHg 49%
    07:00 +31°C° 0 mm 2 mps 731 mmHg 45%
    08:00 +34°C° 0 mm 2 mps 732 mmHg 41%
    09:00 +36°C° 0 mm 2 mps 732 mmHg 38%
    10:00 +37°C° 0 mm 2 mps 732 mmHg 33%
    11:00 +39°C° 0 mm 2 mps 732 mmHg 28%
    12:00 +40°C° 0 mm 3 mps 731 mmHg 23%
    13:00 +42°C° 0 mm 4 mps 731 mmHg 21%
    14:00 +42°C° 0 mm 5 mps 730 mmHg 19%
    15:00 +43°C° 0 mm 5 mps 729 mmHg 17%
    16:00 +41°C° 0 mm 4 mps 729 mmHg 20%
    17:00 +38°C° 0 mm 3 mps 729 mmHg 22%
    18:00 +37°C° 0 mm 2 mps 729 mmHg 24%
    19:00 +35°C° 0 mm 2 mps 730 mmHg 26%
    20:00 +34°C° 0 mm 2 mps 730 mmHg 29%
    21:00 +32°C° 0 mm 1 mps 730 mmHg 31%
    22:00 +32°C° 0 mm 1 mps 730 mmHg 31%
    23:00 +31°C° 0 mm 1 mps 730 mmHg 31%

    Tomorrow, 21 October, Sunday

    Time Temperature Precipitation Wind Pressure Humidity
    00:00 +31°C° 0 mm 1 mps 730 mmHg 32%
    01:00 +30°C° 0 mm 1 mps 730 mmHg 32%
    02:00 +30°C° 0 mm 1 mps 730 mmHg 33%
    03:00 +29°C° 0 mm 1 mps 729 mmHg 34%
    04:00 +29°C° 0 mm 1 mps 730 mmHg 35%
    05:00 +28°C° 0 mm 1 mps 730 mmHg 36%
    06:00 +28°C° 0 mm 2 mps 730 mmHg 37%
    07:00 +30°C° 0 mm 2 mps 730 mmHg 34%
    08:00 +34°C° 0 mm 2 mps 731 mmHg 32%
    09:00 +36°C° 0 mm 3 mps 732 mmHg 30%
    10:00 +38°C° 0 mm 3 mps 731 mmHg 25%
    11:00 +40°C° 0 mm 3 mps 731 mmHg 19%
    12:00 +43°C° 0 mm 4 mps 730 mmHg 14%
    13:00 +43°C° 0 mm 4 mps 730 mmHg 14%
    14:00 +43°C° 0 mm 5 mps 729 mmHg 13%
    15:00 +44°C° 0 mm 6 mps 729 mmHg 13%
    16:00 +41°C° 0 mm 5 mps 729 mmHg 15%
    17:00 +38°C° 0 mm 4 mps 729 mmHg 18%
    18:00 +36°C° 0 mm 2 mps 729 mmHg 20%
    19:00 +35°C° 0 mm 2 mps 729 mmHg 22%
    20:00 +34°C° 0 mm 2 mps 730 mmHg 23%
    21:00 +32°C° 0 mm 2 mps 731 mmHg 25%
    22:00 +31°C° 0 mm 2 mps 731 mmHg 26%
    23:00 +31°C° 0 mm 2 mps 730 mmHg 28%

    Day after tomorrow, 22 October, Monday

    Time Temperature Precipitation Wind Pressure Humidity
    00:00 +30°C° 0 mm 2 mps 730 mmHg 29%
    01:00 +30°C° 0 mm 2 mps 730 mmHg 31%
    02:00 +29°C° 0 mm 2 mps 730 mmHg 33%
    03:00 +29°C° 0 mm 2 mps 730 mmHg 35%
    04:00 +28°C° 0 mm 2 mps 730 mmHg 38%
    05:00 +28°C° 0 mm 2 mps 730 mmHg 41%
    06:00 +27°C° 0 mm 2 mps 730 mmHg 45%
    07:00 +29°C° 0 mm 3 mps 731 mmHg 44%
    08:00 +31°C° 0 mm 3 mps 732 mmHg 43%
    09:00 +35°C° 0 mm 4 mps 732 mmHg 42%
    10:00 +36°C° 0 mm 4 mps 732 mmHg 36%
    11:00 +38°C° 0 mm 3 mps 731 mmHg 31%
    12:00 +40°C° 0 mm 3 mps 731 mmHg 26%
    13:00 +40°C° 0 mm 2 mps 730 mmHg 22%
    14:00 +41°C° 0 mm 2 mps 729 mmHg 18%
    15:00 +42°C° 0 mm 2 mps 729 mmHg 15%
    16:00 +40°C° 0 mm 2 mps 729 mmHg 16%
    17:00 +38°C° 0 mm 2 mps 729 mmHg 18%
    18:00 +37°C° 0 mm 2 mps 729 mmHg 20%
    19:00 +36°C° 0 mm 2 mps 730 mmHg 21%
    20:00 +35°C° 0 mm 2 mps 730 mmHg 23%
    21:00 +34°C° 0 mm 3 mps 731 mmHg 25%
    22:00 +32°C° 0 mm 2 mps 731 mmHg 27%
    23:00 +32°C° 0 mm 2 mps 731 mmHg 28%

    23 October, Tuesday

    Time Temperature Precipitation Wind Pressure Humidity
    00:00 +31°C° 0 mm 2 mps 731 mmHg 29%
    01:00 +30°C° 0 mm 2 mps 731 mmHg 31%
    02:00 +30°C° 0 mm 2 mps 730 mmHg 33%
    03:00 +29°C° 0 mm 2 mps 730 mmHg 35%
    04:00 +29°C° 0 mm 3 mps 730 mmHg 39%
    05:00 +28°C° 0 mm 3 mps 731 mmHg 42%
    06:00 +28°C° 0 mm 3 mps 731 mmHg 46%
    07:00 +30°C° 0 mm 3 mps 731 mmHg 42%
    08:00 +34°C° 0 mm 3 mps 732 mmHg 39%
    09:00 +36°C° 0 mm 4 mps 732 mmHg 35%
    10:00 +38°C° 0 mm 3 mps 732 mmHg 30%
    11:00 +40°C° 0 mm 2 mps 731 mmHg 25%
    12:00 +41°C° 0 mm 2 mps 731 mmHg 20%
    13:00 +42°C° 0 mm 2 mps 730 mmHg 17%
    14:00 +43°C° 0 mm 2 mps 729 mmHg 15%
    15:00 +44°C° 0 mm 3 mps 729 mmHg 12%
    16:00 +42°C° 0 mm 3 mps 729 mmHg 14%
    17:00 +39°C° 0 mm 3 mps 729 mmHg 16%
    18:00 +38°C° 0 mm 3 mps 729 mmHg 18%
    19:00 +37°C° 0 mm 2 mps 730 mmHg 20%
    20:00 +36°C° 0 mm 2 mps 730 mmHg 22%
    21:00 +35°C° 0 mm 2 mps 731 mmHg 24%
    22:00 +34°C° 0 mm 2 mps 731 mmHg 26%
    23:00 +32°C° 0 mm 1 mps 730 mmHg 28%

    24 October, Wednesday

    Time Temperature Precipitation Wind Pressure Humidity
    00:00 +31°C° 0 mm 1 mps 730 mmHg 29%
    01:00 +31°C° 0 mm 1 mps 730 mmHg 30%
    02:00 +30°C° 0 mm 1 mps 730 mmHg 30%
    03:00 +30°C° 0 mm 1 mps 729 mmHg 31%
    04:00 +30°C° 0 mm 2 mps 730 mmHg 33%
    05:00 +29°C° 0 mm 2 mps 730 mmHg 35%
    06:00 +29°C° 0 mm 3 mps 730 mmHg 37%
    07:00 +31°C° 0 mm 3 mps 731 mmHg 35%
    08:00 +34°C° 0 mm 4 mps 731 mmHg 34%
    09:00 +37°C° 0 mm 4 mps 732 mmHg 33%
    10:00 +38°C° 0 mm 4 mps 731 mmHg 29%
    11:00 +40°C° 0 mm 3 mps 731 mmHg 25%
    12:00 +42°C° 0 mm 2 mps 730 mmHg 22%
    13:00 +42°C° 0 mm 2 mps 730 mmHg 19%
    14:00 +44°C° 0 mm 3 mps 729 mmHg 16%
    15:00 +44°C° 0 mm 3 mps 728 mmHg 13%
    16:00 +43°C° 0 mm 3 mps 728 mmHg 15%
    17:00 +40°C° 0 mm 3 mps 729 mmHg 17%
    18:00 +38°C° 0 mm 3 mps 729 mmHg 20%
    19:00 +37°C° 0 mm 3 mps 729 mmHg 22%
    20:00 +36°C° 0 mm 3 mps 730 mmHg 24%
    21:00 +36°C° 0 mm 3 mps 730 mmHg 27%
    22:00 +35°C° 0 mm 3 mps 730 mmHg 28%
    23:00 +34°C° 0 mm 3 mps 730 mmHg 30%

    25 October, Thursday

    Time Temperature Precipitation Wind Pressure Humidity
    00:00 +34°C° 0 mm 3 mps 730 mmHg 31%
    01:00 +33°C° 0 mm 3 mps 729 mmHg 36%
    02:00 +31°C° 0 mm 3 mps 729 mmHg 40%
    03:00 +30°C° 0 mm 3 mps 729 mmHg 45%
    04:00 +30°C° 0 mm 3 mps 730 mmHg 53%
    05:00 +29°C° 0 mm 3 mps 730 mmHg 60%
    06:00 +28°C° 0 mm 3 mps 730 mmHg 68%
    07:00 +30°C° 0 mm 4 mps 731 mmHg 63%
    08:00 +33°C° 0 mm 4 mps 731 mmHg 58%
    09:00 +34°C° 0 mm 5 mps 732 mmHg 53%
    10:00 +36°C° 0 mm 4 mps 731 mmHg 46%
    11:00 +38°C° 0 mm 4 mps 730 mmHg 39%
    12:00 +40°C° 0 mm 3 mps 730 mmHg 32%
    13:00 +42°C° 0 mm 3 mps 729 mmHg 28%
    14:00 +41°C° 0 mm 2 mps 729 mmHg 23%
    15:00 +42°C° 0 mm 2 mps 728 mmHg 18%
    16:00 +41°C° 0 mm 2 mps 728 mmHg 20%
    17:00 +39°C° 0 mm 2 mps 729 mmHg 21%
    18:00 +38°C° 0 mm 2 mps 729 mmHg 23%
    19:00 +37°C° 0 mm 2 mps 729 mmHg 25%
    20:00 +36°C° 0 mm 2 mps 730 mmHg 27%
    21:00 +36°C° 0 mm 2 mps 730 mmHg 29%
    22:00 +35°C° 0 mm 2 mps 730 mmHg 30%
    23:00 +35°C° 0 mm 2 mps 730 mmHg 31%
    Show more